This demonstration page uses our WeatherBlox Daily Observations layout. Learn more.

Left ArrowRight Arrow

38.20091, -84.87328

Hourly Observations for February 28, 2022

Temp ( °F °C ) Dew Point ( °F °C ) Humidity (%) Winds ( mph kmh ) Pressure ( in mb ) Visibility ( mi km ) Precip ( " mm )
12:53 am 00:53 Clear 29 -1.7 23 -5 78 78 NW 5 7 30.24 1024 10 16 0.00 0.00
1:53 am 01:53 Clear 29 -1.7 22 -5.6 75 75 Calm 30.25 1024 10 16 0.00 0.00
2:53 am 02:53 Clear 28 -2.2 22 -5.6 78 78 Calm 30.24 1024 10 16 0.00 0.00
3:53 am 03:53 Clear 27 -2.8 22 -5.6 81 81 Calm 30.23 1024 10 16 0.00 0.00
4:53 am 04:53 Clear 26 -3.3 21 -6.1 81 81 Calm 30.24 1024 10 16 0.00 0.00
5:53 am 05:53 Clear 25 -3.9 21 -6.1 85 85 Calm 30.26 1025 10 16 0.00 0.00
6:53 am 06:53 Clear 24 -4.4 21 -6.1 88 88 Calm 30.27 1025 10 16 0.00 0.00
7:53 am 07:53 Sunny 26 -3.3 23 -5 88 88 Calm 30.29 1026 10 16 0.00 0.00
8:53 am 08:53 Sunny 33 0.6 26 -3.3 75 75 Calm 30.29 1026 10 16 0.00 0.00
9:53 am 09:53 Sunny 40 4.4 26 -3.3 58 58 Calm 30.29 1026 10 16 0.00 0.00
10:53 am 10:53 Sunny 44 6.7 27 -2.8 51 51 Calm 30.29 1026 10 16 0.00 0.00
11:53 am 11:53 Sunny 48 8.9 28 -2.2 46 46 undefined N/A 30.28 1025 10 16 0.00 0.00
12:53 pm 12:53 Sunny 50 10 26 -3.3 39 39 VRB 5 7 30.25 1024 10 16 0.00 0.00
1:53 pm 13:53 Sunny 52 11.1 26 -3.3 37 37 SSW 6 9 30.21 1023 10 16 0.00 0.00
2:53 pm 14:53 Sunny 53 11.7 24 -4.4 32 32 SW 7 11 30.18 1022 10 16 0.00 0.00
3:53 pm 15:53 Sunny 54 12.2 25 -3.9 33 33 WSW 8 13 30.16 1021 10 16 0.00 0.00
4:53 pm 16:53 Sunny 53 11.7 24 -4.4 32 32 SW 10 17 30.16 1021 10 16 0.00 0.00
5:53 pm 17:53 Sunny 50 10 26 -3.3 39 39 SW 7 11 30.14 1021 10 16 0.00 0.00
6:53 pm 18:53 Clear 48 8.9 23 -5 37 37 SSW 5 7 30.14 1021 10 16 0.00 0.00
7:53 pm 19:53 Clear 41 5 25 -3.9 53 53 Calm 30.14 1021 10 16 0.00 0.00
8:53 pm 20:53 Clear 39 3.9 26 -3.3 60 60 WSW 3 6 30.14 1021 10 16 0.00 0.00
9:53 pm 21:53 Clear 37 2.8 25 -3.9 62 62 SSW 5 7 30.12 1020 10 16 0.00 0.00
10:53 pm 22:53 Clear 40 4.4 26 -3.3 58 58 SW 6 9 30.12 1020 10 16 0.00 0.00
11:53 pm 23:53 Clear 38 3.3 26 -3.3 62 62 SW 7 11 30.11 1020 10 16 0.00 0.00

Powered by AerisWeather